GW1838 Weather Reports


time (UTC)temp
F
wind
direction
speed
knots
gust
knots
rain 1hr
in
rain 24hr
in
rain mn
in
humidity
%
barometer
mb
20260504204306 57 202 10.4 18.2 0.00 0.00 0.00 82 1010.3
20260504203306 57 199 10.4 17.4 0.00 0.00 0.00 82 1010.3
20260504202807 56 201 10.4 18.2 0.00 0.00 0.00 82 1010.2
20260504202306 56 193 10.4 18.2 0.00 0.00 0.00 82 1010.2
20260504200808 57 191 12.2 17.4 0.00 0.00 0.00 81 1010.3
20260504195806 57 184 11.3 19.1 0.00 0.00 0.00 81 1010.5
20260504191806 57 190 11.3 17.4 0.00 0.00 0.00 79 1010.8
20260504191306 57 179 10.4 17.4 0.00 0.00 0.00 79 1010.9
20260504185806 58 196 11.3 15.6 0.00 0.00 0.00 78 1011.0
20260504183806 58 202 13.9 20.0 0.00 0.00 0.00 76 1011.4
20260504181806 58 195 10.4 17.4 0.00 0.00 0.00 77 1011.6
20260504175806 58 195 11.3 18.2 0.00 0.00 0.00 78 1011.8
20260504175306 58 191 9.6 21.7 0.00 0.00 0.00 78 1011.9
20260504174807 58 190 12.2 21.7 0.00 0.00 0.00 78 1012.0
20260504174306 58 194 11.3 18.2 0.00 0.00 0.00 79 1012.0
20260504173807 58 176 9.6 15.6 0.00 0.00 0.00 78 1012.1
20260504173307 58 191 10.4 20.0 0.00 0.00 0.00 79 1012.0
20260504172306 58 202 10.4 17.4 0.00 0.00 0.00 78 1012.1
20260504150306 57 194 11.3 17.4 0.00 0.00 0.00 77 1013.4
20260504141307 57 191 8.7 15.6 0.00 0.00 0.00 78 1013.7
20260504140306 57 189 8.7 14.8 0.00 0.00 0.00 77 1013.8
20260504130806 57 217 7.8 12.2 0.00 0.00 0.00 72 1014.2
20260504130306 57 225 7.0 11.3 0.00 0.00 0.00 73 1014.2
20260504120306 55 226 7.8 12.2 0.00 0.00 0.00 74 1014.6
20260504100305 52 241 6.1 12.2 0.00 0.00 0.00 76 1014.7
20260504081806 52 243 8.7 13.9 0.00 0.00 0.00 72 1014.6
20260504080805 52 240 7.8 13.9 0.00 0.00 0.00 72 1014.7
20260504070306 53 243 8.7 14.8 0.00 0.00 0.00 65 1014.1
20260504045805 52 237 7.8 13.0 0.00 0.00 0.00 61 1013.8
20260504045306 52 241 8.7 13.0 0.00 0.00 0.00 60 1013.8
20260504044305 52 241 5.2 10.4 0.00 0.00 0.00 61 1013.8
20260504041305 53 232 8.7 13.9 0.00 0.00 0.00 56 1013.6
20260504040836 53 238 7.8 13.9 0.00 0.00 0.00 57 1013.6
20260504040307 53 236 7.0 12.2 0.00 0.00 0.00 57 1013.6
20260504035806 53 235 6.1 13.9 0.00 0.00 0.00 55 1013.5
20260504035306 53 244 7.0 11.3 0.00 0.00 0.00 54 1013.4
20260504034805 53 248 7.8 13.0 0.00 0.00 0.00 56 1013.3
20260504034305 53 244 8.7 14.8 0.00 0.00 0.00 54 1013.3
20260504033805 53 238 7.8 13.9 0.00 0.00 0.00 54 1013.3
20260504033305 53 245 8.7 13.0 0.00 0.00 0.00 54 1013.2
20260504030805 53 245 6.1 13.0 0.00 0.00 0.00 55 1013.3
20260504025805 53 242 7.0 11.3 0.00 0.00 0.00 57 1013.2
20260504025306 53 244 7.0 10.4 0.00 0.00 0.00 56 1013.3
20260504023305 54 225 6.1 11.3 0.00 0.00 0.00 54 1013.2
20260504022306 54 247 7.0 10.4 0.00 0.00 0.00 53 1013.2
20260504021806 54 241 7.8 11.3 0.00 0.00 0.00 54 1013.2
20260504020806 54 249 5.2 10.4 0.00 0.00 0.00 53 1013.2
20260504015306 54 253 7.8 10.4 0.00 0.00 0.00 52 1013.2
20260504013806 55 242 6.1 10.4 0.00 0.00 0.00 53 1013.1
20260504012806 55 250 5.2 8.7 0.00 0.00 0.00 52 1013.0
20260504011306 56 239 6.1 10.4 0.00 0.00 0.00 48 1012.7
20260504010306 56 238 5.2 8.7 0.00 0.00 0.00 49 1012.5
20260504002306 56 237 4.3 7.0 0.00 0.00 0.00 47 1012.2
20260504001305 56 253 5.2 8.7 0.00 0.00 0.00 49 1012.1
20260503235806 56 253 4.3 8.7 0.00 0.00 0.00 47 1011.9
20260503234805 57 260 6.1 10.4 0.00 0.00 0.00 44 1011.8
20260503231806 58 258 6.1 10.4 0.00 0.00 0.00 41 1011.5
20260503231304 58 261 5.2 10.4 0.00 0.00 0.00 41 1011.5
20260503230805 59 254 7.8 12.2 0.00 0.00 0.00 36 1011.5
20260503230305 59 265 5.2 11.3 0.00 0.00 0.00 39 1011.5
20260503224805 59 279 4.3 10.4 0.00 0.00 0.00 41 1011.5
20260503223805 59 259 7.8 12.2 0.00 0.00 0.00 40 1011.4
20260503223305 59 259 8.7 12.2 0.00 0.00 0.00 40 1011.4
20260503221805 59 273 7.8 12.2 0.00 0.00 0.00 39 1011.3
20260503220805 59 272 7.8 13.0 0.00 0.00 0.00 37 1011.2
20260503215805 59 279 7.8 15.6 0.00 0.00 0.00 39 1011.2
20260503214805 59 287 6.1 12.2 0.00 0.00 0.00 40 1011.2
20260503213806 59 273 7.8 14.8 0.00 0.00 0.00 39 1011.0
20260503212805 58 273 8.7 15.6 0.00 0.00 0.00 38 1011.0
20260503211804 59 270 9.6 15.6 0.00 0.00 0.00 40 1011.0
20260503211306 59 282 5.2 12.2 0.00 0.00 0.00 38 1011.0
20260503205305 59 258 7.8 13.0 0.00 0.00 0.00 38 1011.0